Scottsdale, AZ

9:41 AM MST on July 26, 2017 (GMT -0700)
Scottsdale

Weather History for KSDL - February, 2013

Change the Weather History Date:

Tuesday, February 19, 2013

  Actual Average Record
Temperature  
Mean Temperature 58 °F -  
Max Temperature 69 °F 65 °F 79 °F (2016)
Min Temperature 48 °F 45 °F 42 °F (1998)
Degree Days  
Heating Degree Days 6    
Growing Degree Days 8 (Base 50)    
Moisture  
Dew Point 22 °F    
Average Humidity 27    
Maximum Humidity 44    
Minimum Humidity 12    
Precipitation  
Precipitation 0.00 in - - ()
Sea Level Pressure  
Sea Level Pressure 29.75 in    
Wind  
Wind Speed 4 mph (SSW)    
Max Wind Speed 12 mph    
Max Gust Speed 21 mph    
Visibility 10 miles    
Events      
Averages and records for this station are not official NWS values.
T = Trace of Precipitation, MM = Missing Value Source: NWS Daily Summary

Daily Weather History Graph

Daily Weather History Graph

Search for Another Location

Airport or City:

Trip Planner

Search our weather history database for the weather conditions in past years. The results will help you decide how hot, cold, wet, or windy it might be!

Date:

Astronomy

Feb. 19, 2013 Rise Set
Actual Time 7:07 AM MST 6:16 PM MST
Civil Twilight 6:42 AM MST 6:41 PM MST
Nautical Twilight 6:12 AM MST 7:10 PM MST
Astronomical Twilight 5:44 AM MST 7:39 PM MST
Moon 12:59 PM MST (2/19) 2:33 AM MST (2/19)
Length of Visible Light 11h 59m
Length of Day
11h 08m
Waxing Gibbous, 68% of the Moon is Illuminated
Feb 19
Waxing Gibbous
Feb 25
Full
Mar 4
Last Quarter
Mar 11
New
Mar 19
First Quarter

Hourly Weather History & Observations

Time (MST) Temp. Dew Point Humidity Pressure Visibility Wind Dir Wind Speed Gust Speed Precip Events Conditions
1:53 AM 48.0 °F 26.1 °F 42% 29.85 in 10.0 mi Calm Calm - N/A   Clear
2:53 AM 48.9 °F 26.1 °F 41% 29.85 in 10.0 mi South 3.5 mph - N/A   Clear
3:53 AM 48.9 °F 25.0 °F 39% 29.82 in 10.0 mi SSW 3.5 mph - N/A   Clear
4:53 AM 48.0 °F 27.0 °F 44% 29.83 in 10.0 mi Calm Calm - N/A   Clear
5:53 AM 48.9 °F 27.0 °F 43% 29.83 in 10.0 mi Calm Calm - N/A   Clear
6:53 AM 48.0 °F 26.1 °F 42% 29.84 in 10.0 mi Calm Calm - N/A   Clear
7:53 AM 53.1 °F 21.9 °F 30% 29.85 in 10.0 mi SE 3.5 mph - N/A   Clear
8:53 AM 57.0 °F 21.9 °F 26% 29.85 in 10.0 mi SE 5.8 mph - N/A   Clear
9:53 AM 60.1 °F 19.9 °F 21% 29.84 in 10.0 mi SE 6.9 mph - N/A   Clear
11:53 AM 66.0 °F 17.1 °F 15% 29.80 in 10.0 mi SSE 10.4 mph 18.4 mph N/A   Clear
12:53 PM 66.9 °F 14.0 °F 13% 29.77 in 10.0 mi South 10.4 mph 18.4 mph N/A   Clear
1:53 PM 68.0 °F 16.0 °F 14% 29.74 in 10.0 mi SSW 10.4 mph 20.7 mph N/A   Clear
2:53 PM 69.1 °F 16.0 °F 13% 29.70 in 10.0 mi South 9.2 mph 18.4 mph N/A   Clear
3:53 PM 69.1 °F 14.0 °F 12% 29.68 in 10.0 mi South 9.2 mph - N/A   Clear
5:53 PM 66.9 °F 17.1 °F 15% 29.64 in 10.0 mi WSW 5.8 mph - N/A   Clear
6:53 PM 64.0 °F 19.0 °F 18% 29.65 in 10.0 mi Calm Calm - N/A   Clear
7:53 PM 63.0 °F 21.9 °F 21% 29.66 in 10.0 mi WSW 5.8 mph - N/A   Clear
8:53 PM 62.1 °F 19.0 °F 19% 29.65 in 10.0 mi Calm Calm - N/A   Clear
9:53 PM 59.0 °F 24.1 °F 26% 29.67 in 10.0 mi West 11.5 mph - N/A   Clear
10:53 PM 57.0 °F 26.1 °F 30% 29.65 in 10.0 mi WSW 10.4 mph 18.4 mph N/A   Clear
11:53 PM 55.9 °F 28.9 °F 36% 29.65 in 10.0 mi SSW 6.9 mph - N/A   Clear